TimeAKDT,TemperatureF,Dew PointF,Humidity,Sea Level PressureIn,VisibilityMPH,Wind Direction,Wind SpeedMPH,Gust SpeedMPH,PrecipitationIn,Events,Conditions,WindDirDegrees,DateUTC
12:53 AM,17.1,14.0,88,29.46,9.0,WSW,8.1,-,0.00,Snow,Light Snow,240,2012-10-15 08:53:00
1:53 AM,17.1,15.1,92,29.46,9.0,WSW,5.8,-,0.00,Snow,Light Snow,240,2012-10-15 09:53:00
2:53 AM,18.0,14.0,84,29.46,9.0,SW,9.2,-,0.00,Snow,Light Snow,230,2012-10-15 10:53:00
3:53 AM,17.1,14.0,88,29.45,9.0,WSW,12.7,-,0.00,Snow,Light Snow,250,2012-10-15 11:53:00
4:53 AM,17.1,12.9,84,29.46,9.0,WSW,9.2,-,0.00,Snow,Light Snow,240,2012-10-15 12:53:00
5:53 AM,17.1,14.0,88,29.47,9.0,WSW,8.1,-,0.00,Snow,Light Snow,240,2012-10-15 13:53:00
6:53 AM,17.1,12.9,84,29.47,9.0,SW,10.4,-,0.00,Snow,Light Snow,230,2012-10-15 14:53:00
7:53 AM,16.0,12.9,88,29.47,10.0,SW,13.8,-,0.00,,Overcast,230,2012-10-15 15:53:00
8:53 AM,16.0,12.9,88,29.48,10.0,SW,13.8,-,N/A,,Overcast,220,2012-10-15 16:53:00
9:53 AM,16.0,12.9,88,29.49,10.0,SW,13.8,-,N/A,,Overcast,220,2012-10-15 17:53:00
10:53 AM,16.0,14.0,92,29.50,10.0,SW,11.5,-,N/A,,Overcast,230,2012-10-15 18:53:00
11:53 AM,16.0,14.0,92,29.51,10.0,WSW,8.1,-,N/A,,Overcast,240,2012-10-15 19:53:00
12:53 PM,16.0,14.0,92,29.51,10.0,SW,15.0,-,N/A,,Overcast,220,2012-10-15 20:53:00
1:53 PM,17.1,15.1,92,29.52,10.0,SW,15.0,-,0.00,Snow,Light Snow,220,2012-10-15 21:53:00
2:53 PM,18.0,16.0,92,29.52,9.0,WSW,15.0,-,0.00,Snow,Light Snow,240,2012-10-15 22:53:00
3:53 PM,19.0,16.0,88,29.53,9.0,WSW,15.0,-,0.00,Snow,Light Snow,240,2012-10-15 23:53:00
4:53 PM,18.0,15.1,88,29.53,9.0,WSW,15.0,-,0.00,Snow,Light Snow,240,2012-10-16 00:53:00
5:37 PM,17.6,15.8,93,29.53,10.0,WSW,13.8,-,0.00,,Overcast,250,2012-10-16 01:37:00
5:53 PM,17.1,14.0,88,29.54,10.0,WSW,13.8,-,0.00,,Overcast,240,2012-10-16 01:53:00
6:53 PM,17.1,15.1,92,29.55,10.0,SW,16.1,-,0.00,,Overcast,220,2012-10-16 02:53:00
7:53 PM,17.1,14.0,88,29.55,3.0,SW,16.1,-,0.00,Snow,Light Snow,220,2012-10-16 03:53:00
8:45 PM,17.6,15.8,93,29.54,4.0,SW,13.8,-,0.00,Snow,Light Snow,230,2012-10-16 04:45:00
8:53 PM,18.0,15.1,88,29.55,6.0,SW,15.0,-,0.00,Snow,Light Snow,220,2012-10-16 04:53:00
9:02 PM,17.6,15.8,93,29.55,9.0,SW,15.0,-,0.00,Snow,Light Snow,230,2012-10-16 05:02:00
9:30 PM,17.6,15.8,93,29.54,2.5,SW,15.0,-,0.00,Snow,Light Snow,230,2012-10-16 05:30:00
9:42 PM,17.6,15.8,93,29.54,1.8,SW,12.7,-,0.00,Snow,Light Snow,230,2012-10-16 05:42:00
9:53 PM,18.0,15.1,88,29.55,3.0,SW,15.0,-,0.00,Snow,Light Snow,220,2012-10-16 05:53:00
10:53 PM,19.0,16.0,88,29.55,6.0,SW,13.8,-,0.00,Snow,Light Snow,230,2012-10-16 06:53:00
11:53 PM,19.0,17.1,92,29.56,3.0,WSW,11.5,-,0.00,Snow,Light Snow,240,2012-10-16 07:53:00